Location: Raleigh
(35.7720°N, 78.6390°W)
Time: 15:56:16
(UTC-04:00)

Amateur Radio Satellites - All Passes

Search period start: 26 August 2016 15:26
Search period end: 27 August 2016 15:26
Location: Raleigh, 35.7720°N, 78.6390°W

Satellite Date Start Highest point End Downlink Frequencies (MHz)
Time Altitude Azimuth
Oscar 19 26 Aug 15:27:38 15:29:33 12° 269° (W) 15:31:28 437.125/150
SWISSCUBE 26 Aug 15:32:23 15:37:09 69° 102° (ESE) 15:41:52 437.505
BEESAT 26 Aug 15:49:41 15:54:29 87° 280° (W) 15:59:14 436.000
AO-7 26 Aug 15:59:05 16:07:27 83° 71° (ENE) 16:15:50 29.400- 29.500
MOZHAYETS 4 26 Aug 16:16:21 16:20:03 24° 96° (E) 16:23:46
KKS-1 26 Aug 16:21:17 16:24:34 20° 95° (E) 16:27:50 437.445
SRMSAT 26 Aug 16:36:19 16:39:52 16° 182° (S) 16:43:25 437.500
ITAMSAT 1 26 Aug 16:36:38 16:40:20 20° 265° (W) 16:44:03 435.822/435.867
ITUPSAT 1 26 Aug 16:36:46 16:40:49 28° 291° (WNW) 16:44:52 437.325
HORYU 2 26 Aug 16:38:58 16:42:18 21° 68° (ENE) 16:45:37 437.375
AO-85 26 Aug 16:40:42 16:43:14 16° 252° (WSW) 16:45:42 145.980
ISS 26 Aug 16:40:54 16:44:11 67° 42° (NE) 16:47:25 145.825
STARS 26 Aug 17:00:41 17:04:23 26° 97° (E) 17:08:02 437.465
Cosmos 2491 26 Aug 17:11:36 17:15:05 13° 77° (ENE) 17:18:33 435.465 / 435.565
SWISSCUBE 26 Aug 17:12:49 17:14:19 11° 297° (WNW) 17:15:50 437.505
Cubesat XI-IV 26 Aug 17:17:37 17:18:53 11° 61° (ENE) 17:20:10 437.490
CUTE-I 26 Aug 17:28:14 17:31:02 15° 63° (ENE) 17:33:50 437.470
YUBILEINY 26 Aug 17:29:28 17:37:26 37° 75° (ENE) 17:45:18 435.215
NOAA 15 26 Aug 17:32:48 17:36:37 21° 66° (ENE) 17:40:27 137.62
CUBESAT XI-V 26 Aug 17:32:51 17:36:17 20° 94° (E) 17:39:44 437.345
LilacSat-2 26 Aug 17:44:22 17:46:12 13° 68° (ENE) 17:48:01 437.200
GOMX 1 26 Aug 17:46:43 17:50:17 20° 66° (ENE) 17:54:00 467.674
MOZHAYETS 4 26 Aug 17:53:18 17:57:09 27° 290° (WNW) 18:01:00
NOAA 18 26 Aug 17:55:02 17:59:29 25° 66° (ENE) 18:03:56 137.9125
AO-7 26 Aug 17:55:46 18:00:58 18° 267° (W) 18:06:11 29.400- 29.500
KKS-1 26 Aug 17:57:12 18:01:08 31° 289° (WNW) 18:05:03 437.445
DOVE 4 26 Aug 18:01:46 18:03:57 13° 63° (ENE) 18:06:09 437.250
BRITE-PL 26 Aug 18:02:25 18:07:03 61° 74° (ENE) 18:12:07 437.365/2234.400
HORYU 2 26 Aug 18:14:40 18:18:37 31° 262° (W) 18:22:35 437.375
SRMSAT 26 Aug 18:26:13 18:28:15 12° 192° (SSW) 18:30:16 437.500
Cosmos 2504 26 Aug 18:34:03 18:40:13 29° 74° (ENE) 18:46:19 435.465 / 435.565
STARS 26 Aug 18:37:05 18:40:35 24° 291° (WNW) 18:44:05 437.465
Cubesat XI-IV 26 Aug 18:52:48 18:58:10 87° 255° (WSW) 19:03:32 437.490
CINEMA 3 26 Aug 18:52:57 18:54:18 11° 63° (ENE) 18:55:39 145.822/145.860
Cosmos 2491 26 Aug 19:01:44 19:10:25 83° 95° (E) 19:19:12 435.465 / 435.565
CUTE-I 26 Aug 19:05:11 19:10:29 66° 258° (WSW) 19:15:48 437.470
CUBESAT XI-V 26 Aug 19:09:27 19:13:42 35° 288° (WNW) 19:17:57 437.345
NOAA 15 26 Aug 19:11:05 19:16:03 43° 261° (W) 19:21:03 137.62
BEESAT 2 26 Aug 19:12:35 19:15:23 18° 50° (NE) 19:18:11 435.950
LilacSat-2 26 Aug 19:16:34 19:20:08 36° 262° (W) 19:23:43 437.200
GOMX 1 26 Aug 19:23:11 19:27:55 44° 262° (W) 19:32:58 467.674
HO-68 26 Aug 19:25:06 19:31:20 33° 64° (ENE) 19:37:32 435.675
YUBILEINY 26 Aug 19:26:09 19:34:11 42° 272° (W) 19:42:11 435.215
BEESAT 3 26 Aug 19:32:31 19:36:26 56° 58° (ENE) 19:40:19 437.485
NOAA 18 26 Aug 19:34:46 19:39:53 38° 261° (W) 19:45:02 137.9125
DOVE 4 26 Aug 19:35:48 19:40:52 74° 258° (WSW) 19:46:10 437.250
SEEDS 26 Aug 19:39:13 19:41:28 14° 67° (ENE) 19:43:44 437.485
BRITE-PL 26 Aug 19:44:16 19:46:04 12° 272° (W) 19:47:54 437.365/2234.400
CANX-2 26 Aug 19:56:17 20:00:11 39° 74° (ENE) 20:04:07 2200.000
STRAND 1 26 Aug 19:58:36 20:03:15 35° 98° (E) 20:07:52 437.568
CUTE 1.7 + AOD 2 26 Aug 20:02:38 20:06:33 39° 73° (ENE) 20:10:29 437.475
AAUSAT CUBESAT 2 26 Aug 20:13:13 20:16:07 19° 69° (ENE) 20:19:00 437.432
COMPASS 1 26 Aug 20:19:18 20:22:50 28° 72° (ENE) 20:26:23 437.405
CINEMA 3 26 Aug 20:25:42 20:30:43 79° 258° (WSW) 20:35:45 145.822/145.860
Cosmos 2504 26 Aug 20:27:01 20:33:38 41° 271° (W) 20:40:14 435.465 / 435.565
Oscar 11 26 Aug 20:45:01 20:47:55 18° 68° (ENE) 20:50:48 145.826/435.025
BEESAT 2 26 Aug 20:49:38 20:53:19 35° 246° (WSW) 20:56:57 435.950
FUNcube-1 26 Aug 20:50:28 20:53:41 20° 69° (ENE) 20:56:52 145.935
CUBEBUG 2 26 Aug 20:52:14 20:56:50 56° 75° (ENE) 21:01:22 437.445
UWE-3 26 Aug 20:52:52 20:57:05 36° 73° (ENE) 21:01:13 435.000/436.395/437.385
PRISM 26 Aug 21:00:38 21:02:53 14° 94° (E) 21:05:07 437.425
Cosmos 2491 26 Aug 21:02:43 21:08:16 18° 294° (WNW) 21:13:53 435.465 / 435.565
ZACube-1 26 Aug 21:10:17 21:14:21 35° 73° (ENE) 21:18:23 437.345
HO-68 26 Aug 21:12:02 21:18:47 44° 260° (W) 21:25:35 435.675
PCSat 26 Aug 21:12:24 21:16:56 26° 54° (NE) 21:21:25 145.827
SEEDS 26 Aug 21:12:54 21:16:48 39° 261° (W) 21:20:43 437.485
AIST 1 26 Aug 21:13:39 21:18:05 78° 84° (E) 21:22:27
AIST 2 26 Aug 21:13:57 21:16:30 16° 49° (NE) 21:19:03 435.215
CANX-2 26 Aug 21:33:57 21:36:10 14° 267° (W) 21:38:25 2200.000
STRAND 1 26 Aug 21:38:11 21:42:12 24° 293° (WNW) 21:46:13 437.568
CUTE 1.7 + AOD 2 26 Aug 21:40:22 21:42:32 14° 267° (W) 21:44:42 437.475
AAUSAT CUBESAT 2 26 Aug 21:47:50 21:51:22 28° 263° (W) 21:54:57 437.432
COMPASS 1 26 Aug 21:55:29 21:58:23 18° 266° (W) 22:01:18 437.405
DELFI C3 26 Aug 22:00:49 22:04:38 52° 75° (ENE) 22:08:28 145.870
HUMSAT D 26 Aug 22:07:09 22:10:45 29° 72° (ENE) 22:14:20 437.325/437.525
Oscar 11 26 Aug 22:19:51 22:23:45 33° 262° (W) 22:27:41 145.826/435.025
FUNcube-1 26 Aug 22:25:40 22:29:41 32° 263° (W) 22:33:39 145.935
AUBIESAT-1 26 Aug 22:25:54 22:29:14 20° 63° (ENE) 22:32:35 437.475
M-CUBED/EXP-1 PRIME 26 Aug 22:29:55 22:33:48 27° 65° (ENE) 22:37:44 437.505
UWE-3 26 Aug 22:30:26 22:33:34 18° 266° (W) 22:36:42 435.000/436.395/437.385
CUBEBUG 2 26 Aug 22:31:45 22:33:42 12° 268° (W) 22:35:37 437.445
PRISM 26 Aug 22:34:25 22:38:18 39° 288° (WNW) 22:42:12 437.425
TIGRISAT 26 Aug 22:36:08 22:38:42 16° 93° (E) 22:41:15 435.000
ZACube-1 26 Aug 22:47:40 22:50:42 18° 266° (W) 22:53:41 437.345
AIST 2 26 Aug 22:51:12 22:55:14 47° 245° (WSW) 22:59:13 435.215
PCSat 26 Aug 22:55:24 23:00:23 39° 250° (WSW) 23:05:21 145.827
UNISAT 6 26 Aug 23:03:15 23:07:11 35° 98° (E) 23:11:05 437.425
VELOX 1 26 Aug 23:30:12 23:33:36 22° 69° (ENE) 23:37:02 145.980
SO-50 26 Aug 23:31:59 23:36:07 28° 112° (ESE) 23:40:14 436.795
O/OREOS (USA 219) 26 Aug 23:33:56 23:36:31 15° 58° (ENE) 23:39:05 437.305
Cosmos 2499 26 Aug 23:34:20 23:40:49 38° 76° (ENE) 23:47:21 435.465 / 435.565
CUBEBUG 1 26 Aug 23:34:37 23:38:25 30° 71° (ENE) 23:42:15 437.445
ANTELSAT 26 Aug 23:40:00 23:44:18 81° 283° (WNW) 23:48:32 437.575/2403.000
GONETS M04 26 Aug 23:40:18 23:49:04 60° 80° (E) 23:57:45
HUMSAT D 26 Aug 23:43:24 23:46:21 19° 265° (W) 23:49:18 437.325/437.525
QB50P1 26 Aug 23:50:51 23:53:23 16° 93° (E) 23:55:55 145.935-145.965
DX 1 26 Aug 23:50:54 23:54:28 25° 69° (ENE) 23:58:03 434.975-435.025
SPROUT 26 Aug 23:57:46 00:01:01 21° 69° (ENE) 00:04:17 437.525
AUBIESAT-1 26 Aug 23:59:03 00:03:20 39° 257° (WSW) 00:07:43 437.475
POPSAT HIP 1 27 Aug 00:00:16 00:03:22 20° 95° (E) 00:06:27 437.405
RS-15 27 Aug 00:01:15 00:07:41 17° 97° (E) 00:14:15 29.354- 29.394
M-CUBED/EXP-1 PRIME 27 Aug 00:04:07 00:08:08 29° 259° (W) 00:12:14 437.505
CUSAT 1 27 Aug 00:04:45 00:07:25 64° 97° (E) 00:10:38 437.405
ESTCUBE 1 27 Aug 00:05:15 00:09:43 76° 259° (W) 00:14:13 437.505/2401.250
TIGRISAT 27 Aug 00:11:36 00:15:30 36° 288° (WNW) 00:19:22 435.000
AISAT 27 Aug 00:17:49 00:22:16 83° 75° (ENE) 00:26:45 437.250
JAS-2 27 Aug 00:24:28 00:30:19 28° 96° (E) 00:36:34 435.910
DUCHIFAT 1 27 Aug 00:28:33 00:32:29 38° 99° (E) 00:36:23 145.980
QB50P2 27 Aug 00:29:35 00:33:42 50° 100° (E) 00:37:46 145.880/145.840
POLYITAN 1 27 Aug 00:32:07 00:36:13 50° 100° (E) 00:40:17 437.675
UKube-1 27 Aug 00:32:34 00:36:48 59° 74° (ENE) 00:41:05 .
UNISAT 6 27 Aug 00:40:53 00:43:36 17° 293° (WNW) 00:46:17 437.425
NANOSAT C BR1 27 Aug 00:41:41 00:45:51 62° 102° (ESE) 00:49:59 145.865
50 SAT 27 Aug 00:43:09 00:46:32 41° 261° (W) 00:49:57 437.505
DANDE 27 Aug 00:52:16 00:54:50 67° 97° (E) 00:57:28 436.750
VELOX 1 27 Aug 01:06:02 01:09:53 29° 263° (W) 01:13:45 145.980
CUBEBUG 1 27 Aug 01:11:24 01:14:41 21° 265° (W) 01:18:00 437.445
O/OREOS (USA 219) 27 Aug 01:11:45 01:16:12 51° 254° (WSW) 01:20:39 437.305
SO-50 27 Aug 01:12:11 01:16:30 31° 307° (NW) 01:20:48 436.795
QB50P1 27 Aug 01:25:24 01:29:15 35° 288° (WNW) 01:33:04 145.935-145.965
DX 1 27 Aug 01:27:00 01:30:33 24° 264° (W) 01:34:08 434.975-435.025
Cosmos 2499 27 Aug 01:27:41 01:33:42 31° 273° (W) 01:39:48 435.465 / 435.565
BUGSAT 1 27 Aug 01:27:48 01:31:57 84° 103° (ESE) 01:36:01 437.445
SPROUT 27 Aug 01:33:03 01:36:46 28° 263° (W) 01:40:30 437.525
POPSAT HIP 1 27 Aug 01:35:31 01:39:08 28° 289° (WNW) 01:42:42 437.405
GONETS M04 27 Aug 01:38:19 01:45:09 26° 277° (W) 01:51:59
PHONESAT 2.4 27 Aug 01:50:53 01:53:26 25° 149° (SSE) 01:56:00 2401.200-2431.200
TISAT 1 27 Aug 01:54:54 01:59:09 79° 258° (WSW) 02:03:25 437.305
Oscar 19 27 Aug 01:59:36 02:04:08 30° 97° (E) 02:08:38 437.125/150
ITUPSAT 1 27 Aug 02:03:27 02:07:06 22° 68° (ENE) 02:10:44 437.325
DUCHIFAT 1 27 Aug 02:05:26 02:07:50 15° 293° (WNW) 02:10:11 145.980
RS-15 27 Aug 02:06:39 02:18:04 83° 117° (ESE) 02:30:11 29.354- 29.394
QB50P2 27 Aug 02:07:23 02:09:01 12° 294° (WNW) 02:10:39 145.880/145.840
JAS-2 27 Aug 02:08:48 02:15:23 51° 288° (WNW) 02:22:38 435.910
POLYITAN 1 27 Aug 02:10:00 02:11:32 12° 295° (WNW) 02:13:05 437.675
SWISSCUBE 27 Aug 02:35:52 02:40:30 56° 74° (ENE) 02:45:09 437.505
BEESAT 27 Aug 02:52:58 02:57:43 78° 76° (ENE) 03:02:29 436.000
Gurwin Techsat 1B 27 Aug 03:02:07 03:07:20 55° 101° (E) 03:12:31 435.225
ITAMSAT 1 27 Aug 03:12:27 03:16:03 19° 94° (E) 03:19:37 435.822/435.867
MOZHAYETS 4 27 Aug 03:16:12 03:19:10 17° 67° (ENE) 03:22:07
KKS-1 27 Aug 03:17:37 03:19:55 14° 65° (ENE) 03:22:14 437.445
PHONESAT 2.4 27 Aug 03:26:42 03:29:39 57° 343° (NNW) 03:32:38 2401.200-2431.200
Oscar 19 27 Aug 03:38:54 03:43:20 29° 291° (WNW) 03:47:44 437.125/150
ITUPSAT 1 27 Aug 03:40:26 03:44:42 33° 262° (W) 03:49:00 437.325
STARS 27 Aug 03:55:13 03:58:08 17° 67° (ENE) 04:01:03 437.465
AO-7 27 Aug 04:04:41 04:11:56 33° 98° (E) 04:19:07 29.400- 29.500
SWISSCUBE 27 Aug 04:16:36 04:18:36 12° 268° (W) 04:20:35 437.505
RS-15 27 Aug 04:22:06 04:32:03 31° 321° (NW) 04:42:28 29.354- 29.394
CUBESAT XI-V 27 Aug 04:34:27 04:36:54 14° 66° (ENE) 04:39:23 437.345
Gurwin Techsat 1B 27 Aug 04:43:29 04:46:47 17° 296° (WNW) 04:50:04 435.225
ITAMSAT 1 27 Aug 04:50:46 04:55:40 44° 289° (WNW) 05:00:34 435.822/435.867
KKS-1 27 Aug 04:51:42 04:56:02 49° 260° (W) 05:00:24 437.445
MOZHAYETS 4 27 Aug 04:51:43 04:55:59 39° 262° (W) 05:00:16
PHONESAT 2.4 27 Aug 05:03:35 05:06:19 30° 360° (N) 05:09:02 2401.200-2431.200
AO-85 27 Aug 05:09:59 05:14:30 28° 112° (ESE) 05:18:54 145.980
Cosmos 2491 27 Aug 05:16:07 05:24:04 36° 74° (ENE) 05:31:58 435.465 / 435.565
STARS 27 Aug 05:30:02 05:34:09 37° 261° (W) 05:38:18 437.465
AO-7 27 Aug 05:56:56 06:04:50 50° 294° (WNW) 06:12:42 29.400- 29.500
HORYU 2 27 Aug 06:07:47 06:12:09 59° 101° (E) 06:16:28 437.375
CUBESAT XI-V 27 Aug 06:09:23 06:13:50 49° 261° (W) 06:18:19 437.345
BRITE-PL 27 Aug 06:10:10 06:15:06 29° 95° (E) 06:19:53 437.365/2234.400
NOAA 18 27 Aug 06:21:33 06:23:39 12° 92° (E) 06:25:44 137.9125
YUBILEINY 27 Aug 06:26:18 06:34:36 47° 89° (E) 06:42:55 435.215
PHONESAT 2.4 27 Aug 06:40:02 06:42:59 54° 16° (NNE) 06:45:55 2401.200-2431.200
RS-15 27 Aug 06:44:23 06:50:31 15° 356° (N) 06:56:43 29.354- 29.394
AO-85 27 Aug 06:50:01 06:54:52 35° 305° (NW) 06:59:31 145.980
LilacSat-2 27 Aug 06:52:52 06:56:03 26° 96° (E) 06:59:13 437.200
Cosmos 2504 27 Aug 07:08:23 07:15:28 30° 86° (E) 07:22:12 435.465 / 435.565
STRAND 1 27 Aug 07:11:40 07:16:20 38° 71° (ENE) 07:21:01 437.568
Cosmos 2491 27 Aug 07:12:44 07:20:56 45° 272° (W) 07:29:08 435.465 / 435.565
Cubesat XI-IV 27 Aug 07:13:07 07:18:15 47° 100° (E) 07:23:21 437.490
CUTE-I 27 Aug 07:25:07 07:30:23 64° 102° (ESE) 07:35:39 437.470
GOMX 1 27 Aug 07:27:46 07:33:12 74° 101° (E) 07:38:18 467.674
NOAA 15 27 Aug 07:28:42 07:34:03 89° 105° (ESE) 07:39:22 137.62
DOVE 4 27 Aug 07:38:22 07:43:05 40° 97° (E) 07:47:30 437.250
HORYU 2 27 Aug 07:46:45 07:48:09 11° 296° (WNW) 07:49:33 437.375
BRITE-PL 27 Aug 07:48:23 07:53:29 34° 290° (WNW) 07:58:28 437.365/2234.400
NOAA 18 27 Aug 07:59:18 08:04:47 72° 285° (WNW) 08:10:11 137.9125
SO-50 27 Aug 08:07:11 08:09:24 13° 44° (NE) 08:11:35 436.795
PHONESAT 2.4 27 Aug 08:16:37 08:19:13 27° 211° (SSW) 08:21:49 2401.200-2431.200
YUBILEINY 27 Aug 08:23:44 08:31:30 34° 286° (WNW) 08:39:21 435.215
CINEMA 3 27 Aug 08:24:19 08:28:16 29° 96° (E) 08:32:02 145.822/145.860
LilacSat-2 27 Aug 08:27:39 08:30:07 17° 291° (WNW) 08:32:36 437.200
HO-68 27 Aug 08:42:32 08:49:18 44° 100° (E) 08:56:02 435.675
CUBEBUG 2 27 Aug 08:48:03 08:49:57 13° 92° (E) 08:51:52 437.445
STRAND 1 27 Aug 08:51:42 08:55:34 22° 265° (W) 08:59:27 437.568
Cubesat XI-IV 27 Aug 08:54:14 08:57:55 19° 295° (WNW) 09:01:36 437.490
SEEDS 27 Aug 08:59:20 09:03:16 38° 98° (E) 09:07:13 437.485
RS-15 27 Aug 09:00:11 09:09:46 25° 33° (NNE) 09:19:15 29.354- 29.394
Cosmos 2504 27 Aug 09:00:16 09:08:28 50° 281° (W) 09:16:12 435.465 / 435.565
CUTE-I 27 Aug 09:07:00 09:09:51 15° 297° (WNW) 09:12:42 437.470
GOMX 1 27 Aug 09:08:07 09:10:29 13° 298° (WNW) 09:12:48 467.674
NOAA 15 27 Aug 09:12:06 09:13:00 10° 300° (WNW) 09:13:55 137.62
DOVE 4 27 Aug 09:16:48 09:20:23 20° 294° (WNW) 09:23:50 437.250
ISS 27 Aug 09:18:23 09:21:39 77° 319° (NW) 09:24:56 145.825
CANX-2 27 Aug 09:19:24 09:23:36 67° 284° (WNW) 09:27:49 2200.000
PRISM 27 Aug 09:20:23 09:24:27 84° 257° (WSW) 09:28:35 437.425
BEESAT 3 27 Aug 09:21:18 09:24:02 18° 110° (ESE) 09:26:48 437.485
CUTE 1.7 + AOD 2 27 Aug 09:25:38 09:29:51 66° 283° (WNW) 09:34:02 437.475
AAUSAT CUBESAT 2 27 Aug 09:32:09 09:36:13 50° 99° (E) 09:40:16 437.432
TIGRISAT 27 Aug 09:33:18 09:34:52 12° 65° (ENE) 09:36:25 435.000
COMPASS 1 27 Aug 09:39:31 09:43:42 83° 100° (E) 09:47:54 437.405
AIST 1 27 Aug 09:39:41 09:43:53 51° 93° (E) 09:48:08
SO-50 27 Aug 09:45:50 09:50:24 72° 242° (WSW) 09:54:49 436.795
UNISAT 6 27 Aug 09:59:20 10:03:03 24° 70° (ENE) 10:06:43 437.425
CINEMA 3 27 Aug 10:01:50 10:05:10 21° 292° (WNW) 10:08:25 145.822/145.860
Oscar 11 27 Aug 10:09:22 10:13:35 51° 100° (E) 10:17:47 145.826/435.025
FUNcube-1 27 Aug 10:16:06 10:20:11 56° 100° (E) 10:24:14 145.935
UWE-3 27 Aug 10:21:27 10:25:36 68° 284° (WNW) 10:29:41 435.000/436.395/437.385
CUBEBUG 2 27 Aug 10:22:49 10:26:48 41° 287° (WNW) 10:30:41 437.445
HO-68 27 Aug 10:30:36 10:36:46 32° 296° (WNW) 10:42:54 435.675
ANTELSAT 27 Aug 10:35:21 10:39:54 61° 75° (ENE) 10:44:24 437.575/2403.000
SEEDS 27 Aug 10:36:13 10:38:37 15° 293° (WNW) 10:41:02 437.485
CUSAT 1 27 Aug 10:36:50 10:43:13 49° 79° (E) 10:50:41 437.405
ZACube-1 27 Aug 10:37:16 10:41:24 71° 284° (WNW) 10:45:30 437.345
BEESAT 2 27 Aug 10:38:11 10:42:05 78° 120° (ESE) 10:46:04 435.950
GONETS M04 27 Aug 10:48:22 10:50:41 11° 76° (ENE) 10:52:59
POPSAT HIP 1 27 Aug 10:51:48 10:53:10 11° 65° (ENE) 10:54:31 437.405
ISS 27 Aug 10:57:13 10:58:36 12° 336° (NNW) 10:59:58 145.825
BEESAT 3 27 Aug 10:58:01 11:01:28 29° 306° (NW) 11:04:57 437.485
TIGRISAT 27 Aug 11:06:26 11:11:01 63° 259° (W) 11:15:32 435.000
AAUSAT CUBESAT 2 27 Aug 11:09:46 11:11:13 12° 294° (WNW) 11:12:39 437.432
JUGNU 27 Aug 11:12:02 11:14:06 12° 168° (SSE) 11:16:10 437.505
RS-15 27 Aug 11:12:20 11:24:47 76° 59° (ENE) 11:36:54 29.354- 29.394
DELFI C3 27 Aug 11:15:39 11:19:35 59° 285° (WNW) 11:23:32 145.870
DUCHIFAT 1 27 Aug 11:18:07 11:21:17 21° 69° (ENE) 11:24:27 145.980
QB50P2 27 Aug 11:19:36 11:23:10 26° 70° (ENE) 11:26:43 145.880/145.840
AIST 1 27 Aug 11:20:32 11:21:48 11° 289° (WNW) 11:23:03
POLYITAN 1 27 Aug 11:22:06 11:25:41 26° 70° (ENE) 11:29:16 437.675
HUMSAT D 27 Aug 11:28:04 11:32:10 83° 104° (ESE) 11:36:15 437.325/437.525
DANDE 27 Aug 11:28:23 11:33:49 50° 80° (E) 11:40:46 436.750
NANOSAT C BR1 27 Aug 11:31:00 11:34:45 31° 71° (ENE) 11:38:31 145.865
UNISAT 6 27 Aug 11:35:39 11:39:37 28° 263° (W) 11:43:32 437.425
AUBIESAT-1 27 Aug 11:42:07 11:44:42 17° 97° (E) 11:47:09 437.475
M-CUBED/EXP-1 PRIME 27 Aug 11:46:48 11:50:08 25° 100° (E) 11:53:16 437.505
Oscar 11 27 Aug 11:47:30 11:49:14 12° 294° (WNW) 11:50:58 145.826/435.025
PCSat 27 Aug 11:50:45 11:55:47 40° 110° (ESE) 12:00:49 145.827
FUNcube-1 27 Aug 11:55:35 11:55:54 10° 295° (WNW) 11:56:12 145.935
ESTCUBE 1 27 Aug 12:00:57 12:04:51 28° 97° (E) 12:08:44 437.505/2401.250
Cosmos 2499 27 Aug 12:06:58 12:14:18 36° 88° (E) 12:21:09 435.465 / 435.565
AISAT 27 Aug 12:11:47 12:15:01 19° 95° (E) 12:18:13 437.250
QB50P1 27 Aug 12:14:10 12:18:26 73° 259° (W) 12:22:43 145.935-145.965
BUGSAT 1 27 Aug 12:14:23 12:18:19 38° 73° (ENE) 12:22:16 437.445
50 SAT 27 Aug 12:14:46 12:17:15 17° 95° (E) 12:19:42 437.505
ANTELSAT 27 Aug 12:15:52 12:16:54 11° 268° (W) 12:17:57 437.575/2403.000
JAS-2 27 Aug 12:19:04 12:24:03 50° 72° (ENE) 12:29:16 435.910
CUSAT 1 27 Aug 12:19:22 12:25:01 29° 269° (W) 12:31:22 437.405
POPSAT HIP 1 27 Aug 12:24:13 12:28:25 55° 260° (W) 12:32:38 437.405
UKube-1 27 Aug 12:24:35 12:26:18 12° 93° (E) 12:27:59 .
GONETS M04 27 Aug 12:37:10 12:45:51 76° 94° (E) 12:54:39
AIST 2 27 Aug 12:45:33 12:49:36 70° 117° (ESE) 12:53:42 435.215
DUCHIFAT 1 27 Aug 12:53:06 12:56:46 28° 263° (W) 13:00:28 145.980
QB50P2 27 Aug 12:55:32 12:58:53 22° 264° (W) 13:02:15 145.880/145.840
POLYITAN 1 27 Aug 12:58:05 13:01:25 22° 264° (W) 13:04:45 437.675
VELOX 1 27 Aug 12:58:12 13:02:39 64° 101° (E) 13:07:03 145.980
JUGNU 27 Aug 12:58:45 13:02:20 16° 178° (S) 13:05:54 437.505
CUBEBUG 1 27 Aug 13:01:27 13:05:54 90° 61° (ENE) 13:10:18 437.445
NANOSAT C BR1 27 Aug 13:07:30 13:10:29 18° 265° (W) 13:13:29 145.865
DANDE 27 Aug 13:11:59 13:16:27 23° 268° (W) 13:21:44 436.750
Oscar 19 27 Aug 13:13:38 13:18:11 33° 69° (ENE) 13:22:46 437.125/150
AUBIESAT-1 27 Aug 13:15:44 13:19:13 29° 295° (WNW) 13:22:29 437.475
DX 1 27 Aug 13:16:58 13:21:22 70° 103° (ESE) 13:25:42 434.975-435.025
SPROUT 27 Aug 13:21:07 13:25:21 58° 101° (E) 13:29:31 437.525
M-CUBED/EXP-1 PRIME 27 Aug 13:21:25 13:24:30 21° 297° (WNW) 13:27:25 437.505
RS-15 27 Aug 13:26:25 13:36:03 28° 258° (WSW) 13:45:31 29.354- 29.394
PCSat 27 Aug 13:34:49 13:39:16 25° 306° (NW) 13:43:45 145.827
ESTCUBE 1 27 Aug 13:37:53 13:41:30 24° 291° (WNW) 13:45:06 437.505/2401.250
TISAT 1 27 Aug 13:42:35 13:45:36 19° 95° (E) 13:48:36 437.305
O/OREOS (USA 219) 27 Aug 13:42:36 13:46:15 25° 102° (ESE) 13:49:57 437.305
AO-85 27 Aug 13:47:30 13:47:41 10° 42° (NE) 13:47:52 145.980
AISAT 27 Aug 13:47:32 13:51:30 32° 289° (WNW) 13:55:27 437.250
50 SAT 27 Aug 13:47:49 13:50:46 23° 289° (WNW) 13:53:43 437.505
BUGSAT 1 27 Aug 13:51:21 13:53:48 15° 267° (W) 13:56:16 437.445
UKube-1 27 Aug 13:58:22 14:02:33 49° 287° (WNW) 14:06:43 .
Cosmos 2499 27 Aug 13:59:40 14:07:14 40° 283° (WNW) 14:14:22 435.465 / 435.565
JAS-2 27 Aug 14:06:37 14:09:34 15° 269° (W) 14:12:35 435.910
Gurwin Techsat 1B 27 Aug 14:20:14 14:25:29 67° 74° (ENE) 14:30:46 435.225
AIST 2 27 Aug 14:27:12 14:28:32 11° 314° (NW) 14:29:53 435.215
ITAMSAT 1 27 Aug 14:27:41 14:31:38 23° 67° (ENE) 14:35:37 435.822/435.867
SRMSAT 27 Aug 14:35:14 14:38:30 15° 173° (S) 14:41:46 437.500
GONETS M04 27 Aug 14:37:27 14:43:32 20° 292° (WNW) 14:49:43
VELOX 1 27 Aug 14:37:30 14:38:31 11° 296° (WNW) 14:39:32 145.980
SWISSCUBE 27 Aug 14:39:54 14:43:09 18° 94° (E) 14:46:21 437.505
JUGNU 27 Aug 14:47:28 14:50:34 14° 188° (S) 14:53:40 437.505
Oscar 19 27 Aug 14:53:14 14:57:28 26° 264° (W) 15:01:45 437.125/150
BEESAT 27 Aug 14:56:34 15:00:26 24° 96° (E) 15:04:17 436.000
SPROUT 27 Aug 14:59:47 15:00:43 11° 295° (WNW) 15:01:40 437.525
AO-7 27 Aug 15:00:37 15:07:59 36° 62° (ENE) 15:15:21 29.400- 29.500
TISAT 1 27 Aug 15:17:36 15:21:14 29° 289° (WNW) 15:24:50 437.305
